Location: Balsareny
(41.8670°N, 1.8830°E)
Time: 19:07:16
(UTC+02:00)

ISS - Visible Passes

Search period start: 20 June 2021 00:00
Search period end: 30 June 2021 00:00
Orbit: 417 x 422 km, 51.6° (Epoch: 20 June)

Date Brightness Start Highest point End Pass type
(mag) Time Alt. Az. Time Alt. Az. Time Alt. Az.
26 Jun -1.3 04:59:29 10° SSE 05:01:18 14° SE 05:03:08 10° E visible
27 Jun -3.6 05:46:56 10° SW 05:50:16 68° SE 05:53:37 10° ENE visible
28 Jun -2.9 05:00:51 19° SSW 05:02:53 39° SE 05:06:03 10° ENE visible
29 Jun -2.2 04:15:10 23° SE 04:15:32 23° SE 04:18:18 10° E visible
